GW4208 Weather Reports


time (UTC)temp
F
wind
direction
speed
knots
gust
knots
rain 1hr
in
rain 24hr
in
rain mn
in
humidity
%
barometer
mb
20260510045135 52 153 0.0 0.0 0.12 0.05 0.05 96 1008.6
20260510044631 52 154 0.0 0.0 0.12 0.04 0.04 95 1008.7
20260510044129 52 150 0.0 0.0 0.05 0.03 0.03 95 1008.8
20260510043624 52 150 0.0 0.0 0.07 0.02 0.02 94 1008.8
20260510043121 53 150 0.0 0.0 0.07 0.02 0.02 93 1008.8
20260510042619 53 150 0.0 0.0 0.00 0.01 0.01 92 1008.7
20260510042114 53 163 0.0 0.0 0.05 0.01 0.01 91 1008.7
20260510041612 53 154 0.9 0.9 0.05 0.01 0.01 90 1008.6
20260510041109 54 202 1.7 2.6 0.00 0.00 0.00 89 1008.4
20260510040606 54 163 0.9 1.7 0.00 0.00 0.00 89 1008.4
20260510035558 54 213 1.7 1.7 0.00 0.01 0.01 87 1008.3
20260510035057 55 237 4.3 5.2 0.00 0.01 0.01 87 1008.2
20260510034556 54 296 3.5 3.5 0.00 0.01 0.01 88 1008.2
20260510034053 53 234 1.7 2.6 0.00 0.01 0.01 92 1008.3
20260510033548 52 182 0.9 0.9 0.00 0.01 0.01 95 1007.9
20260510033046 51 204 1.7 1.7 0.00 0.01 0.01 95 1007.9
20260510032543 51 165 0.9 0.9 0.00 0.01 0.01 95 1007.7
20260510032038 51 171 0.0 0.0 0.00 0.01 0.01 95 1007.4
20260510031533 51 139 1.7 1.7 0.00 0.01 0.01 95 1007.3
20260510031029 51 155 0.0 0.0 0.00 0.01 0.01 95 1007.3
20260510030525 51 157 0.0 0.0 0.00 0.01 0.01 95 1007.4
20260510030022 51 152 0.0 0.9 0.00 0.01 0.01 95 1007.1
20260510025519 51 158 0.9 0.9 0.00 0.01 0.01 95 1007.3
20260510025017 51 152 0.0 0.0 0.00 0.01 0.01 95 1007.4
20260510024513 51 152 0.0 0.9 0.00 0.01 0.01 95 1007.2
20260510024010 51 144 0.0 0.9 0.00 0.01 0.01 95 1007.4
20260510023506 51 153 0.9 0.9 0.00 0.01 0.01 95 1007.2
20260510023004 51 144 1.7 1.7 0.00 0.01 0.01 95 1007.0
20260510022502 51 151 0.9 1.7 0.00 0.01 0.01 95 1007.1
20260510022002 51 125 1.7 2.6 0.00 0.01 0.01 95 1006.8
20260510021459 51 146 0.9 0.9 0.00 0.01 0.01 95 1006.8
20260510020956 51 145 0.9 0.9 0.00 0.01 0.01 95 1006.9
20260510020451 51 139 0.9 1.7 0.00 0.01 0.01 95 1006.9
20260510015946 51 117 1.7 1.7 0.00 0.01 0.01 95 1007.1
20260510015443 51 117 1.7 1.7 0.00 0.01 0.01 95 1006.8
20260510014938 51 150 0.9 0.9 0.00 0.01 0.01 95 1007.1
20260510014435 51 155 0.9 0.9 0.00 0.01 0.01 95 1007.1
20260510013931 51 143 0.9 0.9 0.00 0.01 0.01 95 1007.3
20260510013426 51 134 0.9 0.9 0.00 0.01 0.01 94 1006.9
20260510012922 51 137 1.7 1.7 0.00 0.01 0.01 94 1006.7
20260510012418 51 127 1.7 1.7 0.00 0.01 0.01 94 1007.0
20260510011912 52 131 1.7 1.7 0.00 0.01 0.01 94 1006.8
20260510011407 51 149 1.7 1.7 0.00 0.01 0.01 94 1007.0
20260510010904 52 150 0.9 0.9 0.00 0.01 0.01 94 1006.7
20260510010401 52 144 0.0 0.0 0.00 0.01 0.01 94 1006.6
20260510005858 52 143 0.9 1.7 0.00 0.01 0.01 93 1006.7
20260510005354 52 135 1.7 1.7 0.00 0.01 0.01 93 1006.9
20260510004852 52 145 0.9 0.9 0.00 0.01 0.01 93 1006.9
20260510004349 53 155 0.9 1.7 0.00 0.01 0.01 93 1006.8
20260510003847 53 131 1.7 1.7 0.00 0.01 0.01 92 1006.7
20260510003343 53 142 0.0 0.9 0.00 0.01 0.01 92 1006.4
20260510002842 53 139 0.9 0.9 0.00 0.01 0.01 92 1006.3
20260510002339 53 157 0.0 0.0 0.00 0.01 0.01 91 1006.7
20260510001836 54 151 0.9 0.9 0.00 0.01 0.01 90 1006.7
20260510001334 54 162 0.9 0.9 0.00 0.01 0.01 90 1006.6
20260510000830 54 162 0.9 0.9 0.00 0.01 0.01 89 1006.4
20260510000328 54 149 0.9 0.9 0.00 0.01 0.01 88 1006.4
20260509235824 55 158 0.0 0.0 0.00 0.01 0.01 88 1006.1
20260509235321 55 147 0.0 0.0 0.00 0.01 0.01 86 1006.1
20260509234817 56 133 0.9 0.9 0.00 0.01 0.01 82 1006.5
20260509234313 56 144 2.6 2.6 0.00 0.01 0.01 81 1006.4
20260509233812 57 158 0.9 0.9 0.00 0.01 0.01 81 1006.4
20260509233309 57 155 0.0 0.0 0.00 0.01 0.01 81 1006.4
20260509232804 57 157 0.0 0.0 0.00 0.01 0.01 80 1006.6
20260509232306 57 146 0.0 0.0 0.00 0.01 0.01 80 1006.3
20260509231759 57 138 0.9 0.9 0.00 0.01 0.01 80 1006.4
20260509231255 57 153 0.9 0.9 0.00 0.01 0.01 81 1006.5
20260509230754 57 131 1.7 2.6 0.00 0.01 0.01 81 1006.5
20260509230250 58 168 0.0 0.0 0.00 0.01 0.01 80 1006.4
20260509225745 59 183 0.9 0.9 0.00 0.01 0.01 78 1006.3
20260509225242 58 158 0.9 0.9 0.00 0.01 0.01 79 1006.4
20260509224737 57 156 0.0 0.0 0.00 0.01 0.01 81 1006.5
20260509224235 57 162 0.9 0.9 0.00 0.01 0.01 82 1006.4
20260509223731 57 143 0.9 0.9 0.00 0.01 0.01 82 1006.6
20260509223229 57 144 0.9 0.9 0.00 0.01 0.01 81 1006.5
20260509222726 57 165 0.9 0.9 0.00 0.01 0.01 82 1006.6
20260509222221 57 151 0.9 0.9 0.00 0.01 0.01 82 1006.3
20260509221717 56 129 0.9 0.9 0.00 0.01 0.01 82 1006.3
20260509221213 56 136 0.9 0.9 0.00 0.01 0.01 83 1006.5
20260509220709 55 148 0.9 1.7 0.00 0.01 0.01 85 1006.2
20260509220206 55 141 0.9 0.9 0.00 0.01 0.01 88 1006.3
20260509215702 55 158 0.9 0.9 0.00 0.01 0.01 88 1006.4
20260509215158 55 149 0.0 0.0 0.00 0.01 0.01 88 1006.7
20260509214655 55 125 1.7 1.7 0.00 0.01 0.01 87 1006.5
20260509214152 55 154 0.0 0.0 0.00 0.01 0.01 86 1006.6
20260509213649 55 161 0.0 0.9 0.00 0.01 0.01 87 1006.4
20260509213145 55 146 0.9 0.9 0.00 0.01 0.01 88 1006.5
20260509212642 54 145 0.9 0.9 0.00 0.01 0.01 89 1006.6
20260509212139 54 155 1.7 1.7 0.00 0.01 0.01 89 1006.8
20260509211635 54 154 0.0 0.0 0.00 0.01 0.01 89 1006.6
20260509211132 54 151 0.9 0.9 0.00 0.01 0.01 89 1006.6
20260509210629 54 155 0.0 0.0 0.00 0.01 0.01 90 1006.9
20260509210126 53 130 1.7 1.7 0.00 0.01 0.01 90 1006.7
20260509205620 53 122 1.7 2.6 0.00 0.01 0.01 90 1006.8
20260509205115 53 119 1.7 1.7 0.00 0.01 0.01 90 1006.9
20260509204611 53 130 0.9 1.7 0.00 0.01 0.01 91 1007.0
20260509204108 53 126 0.9 0.9 0.00 0.01 0.01 90 1007.1
20260509203604 53 134 1.7 1.7 0.00 0.01 0.01 90 1007.1
20260509203103 53 115 1.7 1.7 0.00 0.01 0.01 90 1007.2
20260509202556 53 135 2.6 2.6 0.00 0.01 0.01 90 1007.1
20260509202047 53 128 2.6 2.6 0.00 0.01 0.01 90 1007.3
20260509201542 52 183 1.7 1.7 0.00 0.01 0.01 91 1007.4
20260509201040 52 131 0.9 1.7 0.00 0.01 0.01 91 1007.4
20260509200538 52 149 0.9 0.9 0.00 0.01 0.01 91 1007.4
20260509200035 52 129 0.9 0.9 0.00 0.01 0.01 91 1007.2
20260509195531 52 143 0.9 0.9 0.00 0.01 0.01 91 1007.5
20260509195026 51 169 0.0 0.9 0.00 0.01 0.01 91 1007.5
20260509194521 51 151 0.0 0.0 0.00 0.01 0.01 92 1007.6
20260509194018 51 140 0.9 1.7 0.00 0.01 0.01 92 1007.6
20260509193513 51 123 0.9 1.7 0.00 0.01 0.01 92 1007.5
20260509193010 51 138 1.7 1.7 0.00 0.01 0.01 92 1007.6
20260509192506 51 138 1.7 1.7 0.00 0.01 0.01 92 1007.7
20260509192001 51 143 3.5 5.2 0.00 0.01 0.01 92 1007.8
20260509191456 50 158 1.7 1.7 0.00 0.01 0.01 93 1007.8
20260509190952 50 129 0.9 0.9 0.00 0.01 0.01 93 1008.0
20260509190449 50 132 1.7 1.7 0.00 0.01 0.01 93 1007.9
20260509185947 50 127 1.7 1.7 0.00 0.01 0.01 93 1008.0
20260509185444 49 133 0.9 0.9 0.00 0.01 0.01 93 1008.0
20260509184941 49 137 1.7 1.7 0.00 0.01 0.01 93 1008.2
20260509184439 49 124 1.7 2.6 0.00 0.01 0.01 93 1008.3
20260509183935 49 132 2.6 2.6 0.00 0.01 0.01 93 1008.0
20260509183429 49 121 2.6 2.6 0.00 0.01 0.01 93 1008.3
20260509182926 49 124 2.6 2.6 0.00 0.01 0.01 93 1008.0
20260509182422 49 136 4.3 6.1 0.00 0.01 0.01 93 1008.2
20260509181920 49 148 1.7 1.7 0.00 0.01 0.01 93 1008.2
20260509181418 49 119 2.6 3.5 0.00 0.01 0.01 93 1008.4
20260509180915 49 153 0.9 0.9 0.00 0.01 0.01 93 1007.9
20260509180410 49 162 2.6 2.6 0.00 0.01 0.01 93 1008.0
20260509175907 49 134 1.7 1.7 0.00 0.01 0.01 93 1008.3
20260509175403 48 132 1.7 3.5 0.00 0.01 0.01 94 1008.2
20260509174900 48 147 2.6 3.5 0.00 0.01 0.01 94 1008.3
20260509174356 48 157 1.7 2.6 0.00 0.01 0.01 95 1008.0
20260509173852 48 136 2.6 3.5 0.00 0.01 0.01 95 1008.2
20260509173351 48 134 0.9 1.7 0.00 0.01 0.01 96 1008.2
20260509172848 47 169 1.7 2.6 0.00 0.01 0.01 96 1008.2
20260509172345 47 154 3.5 5.2 0.00 0.01 0.01 96 1008.3
20260509171841 47 123 2.6 3.5 0.00 0.01 0.01 96 1008.3
20260509171337 47 141 1.7 1.7 0.00 0.01 0.01 96 1008.4
20260509170834 47 126 2.6 2.6 0.00 0.01 0.01 96 1008.3
20260509170330 46 116 1.7 2.6 0.00 0.01 0.01 96 1008.4
20260509165830 47 182 1.7 2.6 0.00 0.01 0.01 96 1008.3
20260509165324 47 118 1.7 2.6 0.00 0.01 0.01 96 1008.5
20260509164820 47 154 1.7 1.7 0.00 0.01 0.01 96 1008.7
20260509164317 46 171 3.5 3.5 0.00 0.01 0.01 96 1008.7
20260509163813 46 121 1.7 2.6 0.00 0.01 0.01 96 1008.7
20260509163310 46 159 1.7 2.6 0.00 0.01 0.01 96 1008.8
20260509162809 46 154 0.0 0.9 0.00 0.01 0.01 96 1008.7
20260509162306 46 160 0.9 1.7 0.00 0.01 0.01 97 1008.7
20260509161759 46 163 1.7 1.7 0.00 0.01 0.01 97 1008.9
20260509161255 46 154 0.9 1.7 0.00 0.01 0.01 97 1008.9
20260509160750 46 124 3.5 3.5 0.00 0.01 0.01 97 1008.7
20260509160247 46 156 1.7 2.6 0.00 0.01 0.01 97 1009.1
20260509155742 45 126 0.9 1.7 0.00 0.01 0.01 96 1009.2
20260509155239 45 122 3.5 3.5 0.00 0.01 0.01 96 1009.1
20260509154735 45 142 1.7 2.6 0.00 0.01 0.01 96 1009.2
20260509154232 45 146 1.7 1.7 0.00 0.01 0.01 96 1009.2
20260509153730 45 163 1.7 2.6 0.00 0.01 0.01 96 1009.2
20260509153225 45 127 0.9 0.9 0.00 0.01 0.01 96 1009.6
20260509152722 45 120 1.7 2.6 0.00 0.01 0.01 96 1009.5
20260509152218 45 120 2.6 2.6 0.00 0.01 0.01 96 1009.4
20260509151715 45 151 1.7 3.5 0.00 0.01 0.01 96 1009.7
20260509151212 45 142 4.3 5.2 0.00 0.01 0.01 96 1009.7
20260509150710 45 139 2.6 3.5 0.00 0.01 0.01 96 1009.8
20260509150208 45 108 4.3 5.2 0.00 0.01 0.01 96 1009.6
20260509145704 46 112 2.6 3.5 0.00 0.01 0.01 96 1009.7
20260509145159 45 144 2.6 2.6 0.00 0.01 0.01 96 1009.6
20260509144656 45 100 0.9 1.7 0.00 0.01 0.01 96 1009.6
20260509144153 45 137 3.5 3.5 0.00 0.01 0.01 96 1009.8
20260509143650 45 129 0.9 1.7 0.00 0.01 0.01 96 1009.7
20260509143148 44 120 5.2 6.1 0.00 0.01 0.01 96 1009.7
20260509142643 44 125 1.7 1.7 0.00 0.01 0.01 96 1009.7
20260509142140 44 125 1.7 2.6 0.00 0.01 0.01 96 1009.7
20260509141636 44 157 3.5 3.5 0.00 0.01 0.01 95 1009.8
20260509141132 44 122 2.6 2.6 0.00 0.01 0.01 95 1009.9
20260509140629 44 108 3.5 5.2 0.00 0.01 0.01 95 1009.8
20260509140127 43 178 3.5 3.5 0.00 0.01 0.01 95 1009.7
20260509135624 43 119 1.7 2.6 0.00 0.01 0.01 95 1009.8
20260509135122 43 152 1.7 2.6 0.00 0.01 0.01 95 1009.8
20260509134618 43 139 1.7 2.6 0.00 0.01 0.01 95 1009.8
20260509134116 43 131 1.7 3.5 0.07 0.01 0.01 95 1009.7
20260509133613 43 140 1.7 2.6 0.07 0.01 0.01 94 1009.8
20260509133111 43 125 1.7 2.6 0.00 0.00 0.00 94 1009.7
20260509132609 43 132 4.3 6.1 0.00 0.00 0.00 94 1009.8
20260509132107 42 162 2.6 2.6 0.00 0.00 0.00 93 1009.8
20260509131602 42 168 2.6 2.6 0.00 0.00 0.00 93 1009.9
20260509131100 42 165 1.7 1.7 0.00 0.00 0.00 92 1009.8
20260509130555 42 142 2.6 2.6 0.00 0.00 0.00 92 1009.9
20260509130052 42 125 3.5 3.5 0.00 0.00 0.00 91 1010.0
20260509125548 42 161 0.9 1.7 0.00 0.00 0.00 90 1009.8
20260509125045 42 152 0.9 0.9 0.00 0.00 0.00 89 1009.9
20260509124542 42 133 1.7 1.7 0.00 0.00 0.00 87 1009.8
20260509124039 42 145 0.9 1.7 0.00 0.00 0.00 85 1010.0
20260509123537 43 135 1.7 1.7 0.00 0.00 0.00 84 1009.9
20260509123033 43 146 0.0 0.0 0.00 0.00 0.00 83 1010.1
20260509122529 43 168 1.7 2.6 0.00 0.00 0.00 82 1010.2
20260509122026 43 136 1.7 1.7 0.00 0.00 0.00 80 1010.4
20260509121523 43 157 1.7 2.6 0.00 0.00 0.00 79 1010.5
20260509121021 43 128 1.7 1.7 0.00 0.00 0.00 77 1010.4
20260509120519 43 125 1.7 1.7 0.00 0.00 0.00 77 1010.6
20260509120017 43 128 2.6 2.6 0.00 0.00 0.00 76 1010.5
20260509115513 43 131 1.7 1.7 0.00 0.00 0.00 76 1010.4
20260509115011 43 140 0.9 2.6 0.00 0.00 0.00 75 1010.0
20260509114509 43 161 0.9 1.7 0.00 0.00 0.00 77 1010.1
20260509114008 43 161 0.0 0.9 0.00 0.00 0.00 76 1010.2
20260509113506 43 144 1.7 1.7 0.00 0.00 0.00 76 1010.1
20260509113003 43 132 0.9 1.7 0.00 0.00 0.00 76 1010.3
20260509112459 42 127 1.7 2.6 0.00 0.00 0.00 75 1010.4
20260509111955 42 124 1.7 1.7 0.00 0.00 0.00 76 1010.4
20260509111454 42 131 0.9 1.7 0.00 0.00 0.00 76 1010.4
20260509110951 42 138 1.7 1.7 0.00 0.00 0.00 76 1010.3
20260509110447 42 133 1.7 1.7 0.00 0.00 0.00 77 1010.4
20260509105945 42 169 1.7 2.6 0.00 0.00 0.00 77 1010.4
20260509105443 41 159 0.9 1.7 0.00 0.00 0.00 77 1010.4
20260509104940 41 152 1.7 1.7 0.00 0.00 0.00 78 1010.6
20260509104437 41 159 0.9 1.7 0.00 0.00 0.00 78 1010.4
20260509103934 41 120 3.5 5.2 0.00 0.00 0.00 78 1010.3
20260509103431 41 157 0.9 0.9 0.00 0.00 0.00 79 1010.2
20260509102930 40 145 0.0 0.9 0.00 0.00 0.00 79 1010.4
20260509102427 40 161 0.0 0.0 0.00 0.00 0.00 79 1010.2
20260509101922 40 149 0.0 0.0 0.00 0.00 0.00 80 1010.1
20260509101419 40 158 0.9 0.9 0.00 0.00 0.00 80 1010.4
20260509100917 40 153 2.6 2.6 0.00 0.00 0.00 80 1010.1
20260509100414 39 165 1.7 1.7 0.00 0.00 0.00 80 1010.0
20260509095910 39 129 0.9 1.7 0.00 0.00 0.00 81 1009.9
20260509095408 39 133 0.9 0.9 0.00 0.00 0.00 81 1009.8
20260509094904 39 148 1.7 1.7 0.00 0.00 0.00 81 1010.0
20260509094400 39 151 0.9 1.7 0.00 0.00 0.00 82 1010.2
20260509093859 39 156 0.0 0.0 0.00 0.00 0.00 82 1010.0
20260509093355 39 150 0.9 0.9 0.00 0.00 0.00 82 1010.1
20260509092854 39 122 0.9 1.7 0.00 0.00 0.00 82 1010.2
20260509092351 39 163 0.9 0.9 0.00 0.00 0.00 82 1010.3
20260509091849 39 143 0.0 0.9 0.00 0.00 0.00 82 1010.2
20260509091346 39 145 0.9 0.9 0.00 0.00 0.00 83 1010.4
20260509090843 39 153 0.9 0.9 0.00 0.00 0.00 83 1010.5
20260509090341 39 155 0.9 0.9 0.00 0.00 0.00 83 1010.5
20260509085838 39 148 0.9 0.9 0.00 0.00 0.00 82 1010.2
20260509085335 39 158 0.9 0.9 0.00 0.00 0.00 83 1010.5
20260509084832 39 128 0.9 1.7 0.00 0.00 0.00 82 1010.6
20260509084328 39 148 1.7 1.7 0.00 0.00 0.00 83 1010.6
20260509083826 39 157 0.9 0.9 0.00 0.00 0.00 83 1010.7
20260509083323 39 116 0.9 1.7 0.00 0.00 0.00 83 1010.7
20260509082819 39 152 0.0 0.0 0.00 0.00 0.00 83 1010.7
20260509082316 39 159 0.9 0.9 0.00 0.00 0.00 83 1010.6
20260509081814 39 153 0.0 0.9 0.00 0.00 0.00 84 1010.8
20260509081311 38 137 0.9 0.9 0.00 0.00 0.00 84 1010.8
20260509080809 38 134 0.9 0.9 0.00 0.00 0.00 84 1010.8
20260509080306 38 132 0.9 0.9 0.00 0.00 0.00 84 1010.7
20260509075804 38 147 1.7 1.7 0.00 0.00 0.00 85 1010.7
20260509075301 38 142 0.9 0.9 0.00 0.00 0.00 85 1010.7
20260509074758 38 132 0.0 0.9 0.00 0.00 0.00 85 1010.6
20260509074256 39 150 0.0 0.9 0.00 0.00 0.00 84 1010.9
20260509073751 39 145 0.0 0.9 0.00 0.00 0.00 84 1010.8
20260509073248 38 150 0.0 0.0 0.00 0.00 0.00 85 1010.7
20260509072744 38 155 0.9 1.7 0.00 0.00 0.00 85 1010.6
20260509072242 38 129 0.0 0.9 0.00 0.00 0.00 87 1010.5
20260509071738 37 134 0.9 0.9 0.00 0.00 0.00 88 1010.6
20260509071236 37 134 0.0 0.0 0.00 0.00 0.00 90 1010.7
20260509070732 37 134 0.0 0.0 0.00 0.00 0.00 90 1010.7
20260509070229 37 134 0.0 0.0 0.00 0.00 0.00 90 1010.7
20260509065725 37 134 0.0 0.0 0.00 0.00 0.00 90 1010.9
20260509065221 37 134 0.0 0.0 0.00 0.00 0.00 90 1010.9
20260509064718 37 134 0.9 0.9 0.00 0.00 0.00 89 1011.1
20260509064216 37 134 0.0 0.0 0.00 0.00 0.00 89 1010.8
20260509063713 37 141 0.0 0.9 0.00 0.00 0.00 90 1010.8
20260509063209 37 134 0.0 0.0 0.00 0.00 0.00 90 1011.0
20260509062706 37 149 0.0 0.0 0.00 0.00 0.00 91 1011.0
20260509062204 37 136 0.0 0.0 0.00 0.00 0.00 91 1011.0
20260509061700 37 136 0.0 0.0 0.00 0.00 0.00 90 1011.2
20260509061158 37 136 0.0 0.0 0.00 0.00 0.00 90 1011.0
20260509060655 37 136 0.0 0.0 0.00 0.00 0.00 89 1011.2
20260509060151 38 135 0.0 0.0 0.00 0.00 0.00 89 1011.2
20260509055647 38 135 0.0 0.0 0.00 0.00 0.00 88 1011.4
20260509055143 38 135 0.0 0.0 0.00 0.00 0.00 87 1011.5
20260509054640 38 135 0.0 0.0 0.00 0.00 0.00 87 1011.5
20260509054137 38 135 0.0 0.0 0.00 0.00 0.00 86 1011.7
20260509053636 39 135 0.0 0.0 0.00 0.00 0.00 86 1011.6
20260509053133 39 134 0.0 0.0 0.00 0.00 0.00 86 1011.6
20260509052631 39 137 0.0 0.0 0.00 0.00 0.00 87 1011.7
20260509052128 39 148 0.0 0.0 0.00 0.00 0.00 88 1011.8
20260509051626 38 136 0.0 0.0 0.00 0.00 0.00 89 1011.8
20260509051122 39 137 0.0 0.9 0.00 0.00 0.00 88 1011.8
20260509050620 39 137 0.0 0.0 0.00 0.00 0.00 87 1011.8
20260509050115 39 135 0.0 0.0 0.00 0.00 0.00 86 1011.9
20260509045613 39 150 0.0 0.0 0.00 0.00 0.00 86 1011.9